Time,TemperatureF,DewpointF,PressureIn,WindDirection,WindDirectionDegrees,WindSpeedMPH,WindSpeedGustMPH,Humidity,HourlyPrecipIn,Conditions,Clouds,dailyrainin,SoftwareType,DateUTC
2013-11-19 00:00:00,48.4,37.6,30.01,North,5,0.0,1.0,66,0.00,,,0.00,VWS V14.00,2013-11-19 07:00:00,
2013-11-19 00:01:00,45.0,36.2,30.00,North,5,0.0,1.0,71,0.00,,,0.00,VWS V14.00,2013-11-19 07:01:00,
2013-11-19 00:06:00,45.0,36.5,30.01,North,360,0.0,0.0,72,0.00,,,0.00,VWS V14.00,2013-11-19 07:06:00,
2013-11-19 00:10:00,48.4,37.6,30.01,North,5,0.0,0.0,66,0.00,,,0.00,VWS V14.00,2013-11-19 07:10:00,
2013-11-19 00:11:00,44.9,36.4,30.01,North,360,0.0,0.0,72,0.00,,,0.00,VWS V14.00,2013-11-19 07:11:00,
2013-11-19 00:16:00,44.6,36.2,30.00,North,5,0.0,0.0,72,0.00,,,0.00,VWS V14.00,2013-11-19 07:16:00,
2013-11-19 00:20:00,47.4,37.0,30.00,North,360,0.0,1.0,67,0.00,,,0.00,VWS V14.00,2013-11-19 07:20:00,
2013-11-19 00:21:00,44.5,36.0,30.01,North,5,0.0,0.0,72,0.00,,,0.00,VWS V14.00,2013-11-19 07:21:00,
2013-11-19 00:26:00,44.0,35.9,30.01,North,5,0.0,1.0,73,0.00,,,0.00,VWS V14.00,2013-11-19 07:26:00,
2013-11-19 00:30:00,46.8,36.8,30.01,North,5,0.0,0.0,68,0.00,,,0.00,VWS V14.00,2013-11-19 07:30:00,
2013-11-19 00:31:00,43.7,35.6,30.01,North,360,0.0,0.0,73,0.00,,,0.00,VWS V14.00,2013-11-19 07:31:00,
2013-11-19 00:36:00,43.1,35.0,30.01,North,5,1.0,1.0,73,0.00,,,0.00,VWS V14.00,2013-11-19 07:36:00,
2013-11-19 00:40:00,45.8,36.6,30.01,North,360,0.0,0.0,70,0.00,,,0.00,VWS V14.00,2013-11-19 07:40:00,
2013-11-19 00:41:00,42.5,34.8,30.01,North,5,0.0,1.0,74,0.00,,,0.00,VWS V14.00,2013-11-19 07:41:00,
2013-11-19 00:46:00,42.4,35.4,30.02,North,360,0.0,0.0,76,0.00,,,0.00,VWS V14.00,2013-11-19 07:46:00,
2013-11-19 00:50:00,45.4,36.6,30.00,North,5,0.0,0.0,71,0.00,,,0.00,VWS V14.00,2013-11-19 07:50:00,
2013-11-19 00:51:00,42.2,35.2,30.01,North,5,3.0,3.0,76,0.00,,,0.00,VWS V14.00,2013-11-19 07:51:00,
2013-11-19 00:56:00,41.9,35.2,30.01,North,5,0.0,1.0,77,0.00,,,0.00,VWS V14.00,2013-11-19 07:56:00,
2013-11-19 01:00:00,45.0,36.2,30.00,North,360,0.0,1.0,71,0.00,,,0.00,VWS V14.00,2013-11-19 08:00:00,
2013-11-19 01:01:00,41.9,35.2,30.01,North,5,0.0,1.0,77,0.00,,,0.00,VWS V14.00,2013-11-19 08:01:00,
2013-11-19 01:06:00,42.1,35.8,30.01,North,5,0.0,0.0,78,0.00,,,0.00,VWS V14.00,2013-11-19 08:06:00,
2013-11-19 01:10:00,44.9,36.4,30.01,North,360,0.0,0.0,72,0.00,,,0.00,VWS V14.00,2013-11-19 08:10:00,
2013-11-19 01:11:00,42.3,35.9,30.01,North,360,0.0,1.0,78,0.00,,,0.00,VWS V14.00,2013-11-19 08:11:00,
2013-11-19 01:16:00,42.4,36.0,30.01,North,5,0.0,0.0,78,0.00,,,0.00,VWS V14.00,2013-11-19 08:16:00,
2013-11-19 01:20:00,44.5,36.0,30.01,North,5,0.0,0.0,72,0.00,,,0.00,VWS V14.00,2013-11-19 08:20:00,
2013-11-19 01:21:00,42.4,36.0,30.00,North,5,0.0,0.0,78,0.00,,,0.00,VWS V14.00,2013-11-19 08:21:00,
2013-11-19 01:26:00,42.4,36.0,30.00,North,5,0.0,1.0,78,0.00,,,0.00,VWS V14.00,2013-11-19 08:26:00,
2013-11-19 01:30:00,43.8,35.7,30.01,North,360,0.0,0.0,73,0.00,,,0.00,VWS V14.00,2013-11-19 08:30:00,
2013-11-19 01:31:00,42.4,36.0,30.00,North,5,0.0,0.0,78,0.00,,,0.00,VWS V14.00,2013-11-19 08:31:00,
2013-11-19 01:36:00,42.4,36.0,30.00,North,360,0.0,1.0,78,0.00,,,0.00,VWS V14.00,2013-11-19 08:36:00,
2013-11-19 01:40:00,42.6,34.9,30.01,North,5,0.0,1.0,74,0.00,,,0.00,VWS V14.00,2013-11-19 08:40:00,
2013-11-19 01:41:00,42.5,36.1,30.00,NNW,330,0.0,4.0,78,0.00,,,0.00,VWS V14.00,2013-11-19 08:41:00,
2013-11-19 01:46:00,42.7,36.3,30.00,NNW,333,0.0,3.0,78,0.00,,,0.00,VWS V14.00,2013-11-19 08:46:00,
2013-11-19 01:50:00,42.3,35.3,30.01,North,5,2.0,2.0,76,0.00,,,0.00,VWS V14.00,2013-11-19 08:50:00,
2013-11-19 01:51:00,42.8,36.4,30.00,NNW,333,0.0,0.0,78,0.00,,,0.00,VWS V14.00,2013-11-19 08:51:00,
2013-11-19 01:56:00,42.8,36.4,30.00,NNW,333,0.0,0.0,78,0.00,,,0.00,VWS V14.00,2013-11-19 08:56:00,
2013-11-19 02:00:00,41.8,35.1,30.01,North,360,0.0,1.0,77,0.00,,,0.00,VWS V14.00,2013-11-19 09:00:00,
2013-11-19 02:01:00,42.8,36.1,30.00,NNW,333,0.0,0.0,77,0.00,,,0.00,VWS V14.00,2013-11-19 09:01:00,
2013-11-19 02:06:00,42.4,35.7,30.00,NNW,333,1.0,2.0,77,0.00,,,0.00,VWS V14.00,2013-11-19 09:06:00,
2013-11-19 02:10:00,42.3,35.9,30.01,North,5,0.0,1.0,78,0.00,,,0.00,VWS V14.00,2013-11-19 09:10:00,
2013-11-19 02:11:00,41.9,35.2,30.00,NNW,333,0.0,2.0,77,0.00,,,0.00,VWS V14.00,2013-11-19 09:11:00,
2013-11-19 02:16:00,41.5,35.2,30.00,NNW,333,1.0,1.0,78,0.00,,,0.00,VWS V14.00,2013-11-19 09:16:00,
2013-11-19 02:20:00,42.4,36.0,30.00,North,5,0.0,0.0,78,0.00,,,0.00,VWS V14.00,2013-11-19 09:20:00,
2013-11-19 02:21:00,41.2,34.9,29.99,NNW,333,0.0,1.0,78,0.00,,,0.00,VWS V14.00,2013-11-19 09:21:00,
2013-11-19 02:26:00,41.0,36.2,29.99,NNW,333,0.0,1.0,83,0.00,,,0.00,VWS V14.00,2013-11-19 09:26:00,
2013-11-19 02:30:00,42.4,36.0,30.00,North,5,0.0,0.0,78,0.00,,,0.00,VWS V14.00,2013-11-19 09:30:00,
2013-11-19 02:31:00,40.8,34.8,30.00,NNW,333,0.0,3.0,79,0.00,,,0.00,VWS V14.00,2013-11-19 09:31:00,
2013-11-19 02:36:00,40.8,35.1,30.00,NNW,333,0.0,2.0,80,0.00,,,0.00,VWS V14.00,2013-11-19 09:36:00,
2013-11-19 02:40:00,42.5,36.1,30.00,NNW,330,0.0,4.0,78,0.00,,,0.00,VWS V14.00,2013-11-19 09:40:00,
2013-11-19 02:41:00,40.5,34.5,30.00,NNW,333,0.0,1.0,79,0.00,,,0.00,VWS V14.00,2013-11-19 09:41:00,
2013-11-19 02:46:00,40.4,34.7,29.99,NNW,333,0.0,2.0,80,0.00,,,0.00,VWS V14.00,2013-11-19 09:46:00,
2013-11-19 02:50:00,42.8,36.4,30.00,NNW,333,0.0,0.0,78,0.00,,,0.00,VWS V14.00,2013-11-19 09:50:00,
2013-11-19 02:51:00,40.3,34.6,29.99,NNW,333,0.0,0.0,80,0.00,,,0.00,VWS V14.00,2013-11-19 09:51:00,
2013-11-19 02:56:00,40.2,34.5,29.99,NNW,333,0.0,0.0,80,0.00,,,0.00,VWS V14.00,2013-11-19 09:56:00,
2013-11-19 03:00:00,42.8,36.1,30.00,NNW,333,0.0,0.0,77,0.00,,,0.00,VWS V14.00,2013-11-19 10:00:00,
2013-11-19 03:01:00,40.1,34.4,29.99,NNW,333,0.0,0.0,80,0.00,,,0.00,VWS V14.00,2013-11-19 10:01:00,
2013-11-19 03:06:00,39.9,34.5,29.99,NNW,333,0.0,1.0,81,0.00,,,0.00,VWS V14.00,2013-11-19 10:06:00,
2013-11-19 03:10:00,41.9,35.2,30.00,NNW,333,0.0,2.0,77,0.00,,,0.00,VWS V14.00,2013-11-19 10:10:00,
2013-11-19 03:11:00,39.8,34.5,29.99,NNW,333,0.0,0.0,81,0.00,,,0.00,VWS V14.00,2013-11-19 10:11:00,
2013-11-19 03:16:00,39.3,33.7,29.99,NNW,333,0.0,1.0,80,0.00,,,0.00,VWS V14.00,2013-11-19 10:16:00,
2013-11-19 03:20:00,41.2,34.9,30.00,NNW,333,0.0,1.0,78,0.00,,,0.00,VWS V14.00,2013-11-19 10:20:00,
2013-11-19 03:21:00,38.9,33.6,29.99,NNW,333,0.0,1.0,81,0.00,,,0.00,VWS V14.00,2013-11-19 10:21:00,
2013-11-19 03:26:00,38.7,33.4,29.99,NNW,333,0.0,0.0,81,0.00,,,0.00,VWS V14.00,2013-11-19 10:26:00,
2013-11-19 03:30:00,40.8,34.8,30.00,NNW,333,0.0,3.0,79,0.00,,,0.00,VWS V14.00,2013-11-19 10:30:00,
2013-11-19 03:31:00,38.7,33.7,29.98,NNW,333,0.0,0.0,82,0.00,,,0.00,VWS V14.00,2013-11-19 10:31:00,
2013-11-19 03:36:00,38.6,33.6,29.98,NNW,333,0.0,0.0,82,0.00,,,0.00,VWS V14.00,2013-11-19 10:36:00,
2013-11-19 03:40:00,40.6,34.6,30.00,NNW,333,0.0,1.0,79,0.00,,,0.00,VWS V14.00,2013-11-19 10:40:00,
2013-11-19 03:41:00,38.6,33.6,29.98,NNW,333,0.0,0.0,82,0.00,,,0.00,VWS V14.00,2013-11-19 10:41:00,
2013-11-19 03:46:00,38.5,33.5,29.98,NNW,333,0.0,0.0,82,0.00,,,0.00,VWS V14.00,2013-11-19 10:46:00,
2013-11-19 03:50:00,40.4,34.7,29.99,NNW,333,0.0,0.0,80,0.00,,,0.00,VWS V14.00,2013-11-19 10:50:00,
2013-11-19 03:51:00,38.3,33.3,29.98,NNW,333,0.0,0.0,82,0.00,,,0.00,VWS V14.00,2013-11-19 10:51:00,
2013-11-19 03:56:00,38.3,33.6,29.98,NNW,333,0.0,0.0,83,0.00,,,0.00,VWS V14.00,2013-11-19 10:56:00,
2013-11-19 04:00:00,40.1,34.4,29.99,NNW,333,0.0,0.0,80,0.00,,,0.00,VWS V14.00,2013-11-19 11:00:00,
2013-11-19 04:01:00,38.2,33.5,29.98,NNW,333,1.0,1.0,83,0.00,,,0.00,VWS V14.00,2013-11-19 11:01:00,
2013-11-19 04:06:00,37.9,33.2,29.97,NNW,333,0.0,3.0,83,0.00,,,0.00,VWS V14.00,2013-11-19 11:06:00,
2013-11-19 04:10:00,39.8,34.5,29.99,NNW,333,0.0,0.0,81,0.00,,,0.00,VWS V14.00,2013-11-19 11:10:00,
2013-11-19 04:11:00,37.8,33.1,29.97,NNW,333,0.0,0.0,83,0.00,,,0.00,VWS V14.00,2013-11-19 11:11:00,
2013-11-19 04:16:00,38.0,33.6,29.97,NNW,333,0.0,0.0,84,0.00,,,0.00,VWS V14.00,2013-11-19 11:16:00,
2013-11-19 04:20:00,38.9,33.6,29.99,NNW,333,1.0,1.0,81,0.00,,,0.00,VWS V14.00,2013-11-19 11:20:00,
2013-11-19 04:21:00,38.3,34.2,29.97,NNW,333,0.0,0.0,85,0.00,,,0.00,VWS V14.00,2013-11-19 11:21:00,
2013-11-19 04:26:00,38.4,34.3,29.97,NNW,333,0.0,0.0,85,0.00,,,0.00,VWS V14.00,2013-11-19 11:26:00,
2013-11-19 04:30:00,38.7,33.7,29.99,NNW,333,0.0,0.0,82,0.00,,,0.00,VWS V14.00,2013-11-19 11:30:00,
2013-11-19 04:31:00,38.4,34.3,29.97,NNW,333,0.0,0.0,85,0.00,,,0.00,VWS V14.00,2013-11-19 11:31:00,
2013-11-19 04:36:00,38.4,34.3,29.97,NNW,333,0.0,0.0,85,0.00,,,0.00,VWS V14.00,2013-11-19 11:36:00,
2013-11-19 04:40:00,38.6,33.6,29.98,NNW,333,0.0,0.0,82,0.00,,,0.00,VWS V14.00,2013-11-19 11:40:00,
2013-11-19 04:41:00,38.4,34.3,29.97,NNW,333,0.0,0.0,85,0.00,,,0.00,VWS V14.00,2013-11-19 11:41:00,
2013-11-19 04:46:00,38.4,34.3,29.97,NNW,333,0.0,0.0,85,0.00,,,0.00,VWS V14.00,2013-11-19 11:46:00,
2013-11-19 04:50:00,38.4,33.4,29.98,NNW,333,0.0,0.0,82,0.00,,,0.00,VWS V14.00,2013-11-19 11:50:00,
2013-11-19 04:51:00,38.4,34.3,29.98,NNW,333,0.0,0.0,85,0.00,,,0.00,VWS V14.00,2013-11-19 11:51:00,
2013-11-19 04:56:00,38.4,34.3,29.98,NNW,333,0.0,0.0,85,0.00,,,0.00,VWS V14.00,2013-11-19 11:56:00,
2013-11-19 05:00:00,38.2,33.5,29.98,NNW,333,1.0,1.0,83,0.00,,,0.00,VWS V14.00,2013-11-19 12:00:00,
2013-11-19 05:01:00,38.3,34.2,29.98,NNW,333,0.0,0.0,85,0.00,,,0.00,VWS V14.00,2013-11-19 12:01:00,
2013-11-19 05:06:00,37.8,33.4,29.97,NNW,333,0.0,0.0,84,0.00,,,0.00,VWS V14.00,2013-11-19 12:06:00,
2013-11-19 05:10:00,37.8,33.1,29.97,NNW,333,0.0,0.0,83,0.00,,,0.00,VWS V14.00,2013-11-19 12:10:00,
2013-11-19 05:11:00,37.5,33.1,29.97,NNW,333,0.0,0.0,84,0.00,,,0.00,VWS V14.00,2013-11-19 12:11:00,
2013-11-19 05:16:00,37.7,33.6,29.97,NNW,333,0.0,0.0,85,0.00,,,0.00,VWS V14.00,2013-11-19 12:16:00,
2013-11-19 05:20:00,38.3,34.2,29.97,NNW,333,0.0,0.0,85,0.00,,,0.00,VWS V14.00,2013-11-19 12:20:00,
2013-11-19 05:21:00,37.5,33.4,29.97,NNW,333,0.0,1.0,85,0.00,,,0.00,VWS V14.00,2013-11-19 12:21:00,
2013-11-19 05:26:00,37.6,33.5,29.97,NNW,333,0.0,0.0,85,0.00,,,0.00,VWS V14.00,2013-11-19 12:26:00,
2013-11-19 05:30:00,38.4,34.3,29.97,NNW,333,0.0,0.0,85,0.00,,,0.00,VWS V14.00,2013-11-19 12:30:00,
2013-11-19 05:31:00,37.7,33.9,29.97,NNW,333,0.0,0.0,86,0.00,,,0.00,VWS V14.00,2013-11-19 12:31:00,
2013-11-19 05:35:00,37.8,34.0,29.97,NNW,333,0.0,0.0,86,0.00,,,0.00,VWS V14.00,2013-11-19 12:35:00,
2013-11-19 05:40:00,37.8,34.0,29.97,NNW,333,0.0,0.0,86,0.00,,,0.00,VWS V14.00,2013-11-19 12:40:00,
2013-11-19 05:45:00,37.9,34.1,29.97,NNW,333,0.0,0.0,86,0.00,,,0.00,VWS V14.00,2013-11-19 12:45:00,
2013-11-19 05:50:00,37.9,34.1,29.98,NNW,333,0.0,2.0,86,0.00,,,0.00,VWS V14.00,2013-11-19 12:50:00,
2013-11-19 05:55:00,38.0,34.2,29.97,NNW,333,0.0,0.0,86,0.00,,,0.00,VWS V14.00,2013-11-19 12:55:00,
2013-11-19 06:00:00,37.9,34.1,29.97,NNW,333,0.0,0.0,86,0.00,,,0.00,VWS V14.00,2013-11-19 13:00:00,
2013-11-19 06:05:00,37.7,33.6,29.97,NNW,333,0.0,0.0,85,0.00,,,0.00,VWS V14.00,2013-11-19 13:05:00,
2013-11-19 06:10:00,37.5,33.4,29.98,NNW,333,0.0,0.0,85,0.00,,,0.00,VWS V14.00,2013-11-19 13:10:00,
2013-11-19 06:15:00,37.4,33.3,29.98,NNW,333,0.0,0.0,85,0.00,,,0.00,VWS V14.00,2013-11-19 13:15:00,
2013-11-19 06:20:00,37.3,33.2,29.98,NNW,333,0.0,0.0,85,0.00,,,0.00,VWS V14.00,2013-11-19 13:20:00,
2013-11-19 06:25:00,37.0,32.9,29.97,NNW,333,1.0,1.0,85,0.00,,,0.00,VWS V14.00,2013-11-19 13:25:00,
2013-11-19 06:30:00,36.7,32.6,29.97,NNW,333,0.0,1.0,85,0.00,,,0.00,VWS V14.00,2013-11-19 13:30:00,
2013-11-19 06:35:00,36.6,32.5,29.97,NNW,333,2.0,2.0,85,0.00,,,0.00,VWS V14.00,2013-11-19 13:35:00,
2013-11-19 06:40:00,36.3,32.2,29.97,NNW,333,0.0,3.0,85,0.00,,,0.00,VWS V14.00,2013-11-19 13:40:00,
2013-11-19 06:45:00,36.3,32.5,29.97,NNW,333,0.0,0.0,86,0.00,,,0.00,VWS V14.00,2013-11-19 13:45:00,
2013-11-19 06:50:00,36.2,32.4,29.97,NNW,333,0.0,1.0,86,0.00,,,0.00,VWS V14.00,2013-11-19 13:50:00,
2013-11-19 06:55:00,36.1,32.3,29.97,NNW,333,0.0,0.0,86,0.00,,,0.00,VWS V14.00,2013-11-19 13:55:00,
2013-11-19 07:00:00,36.1,32.3,29.98,NNW,333,0.0,1.0,86,0.00,,,0.00,VWS V14.00,2013-11-19 14:00:00,
2013-11-19 07:05:00,36.2,32.4,29.98,NNW,333,0.0,1.0,86,0.00,,,0.00,VWS V14.00,2013-11-19 14:05:00,
2013-11-19 07:10:00,36.2,32.4,29.98,NNW,333,0.0,0.0,86,0.00,,,0.00,VWS V14.00,2013-11-19 14:10:00,
2013-11-19 07:15:00,36.2,32.7,29.98,NNW,333,0.0,0.0,87,0.00,,,0.00,VWS V14.00,2013-11-19 14:15:00,
2013-11-19 07:20:00,36.2,32.4,29.97,NNW,333,0.0,0.0,86,0.00,,,0.00,VWS V14.00,2013-11-19 14:20:00,
2013-11-19 07:25:00,36.2,32.4,29.97,NNW,333,0.0,1.0,86,0.00,,,0.00,VWS V14.00,2013-11-19 14:25:00,
2013-11-19 07:28:00,36.2,32.7,29.98,NNW,333,0.0,0.0,87,0.00,,,0.00,VWS V14.00,2013-11-19 14:28:00,
2013-11-19 07:30:00,36.7,32.6,29.97,NNW,333,0.0,1.0,85,0.00,,,0.00,VWS V14.00,2013-11-19 14:30:00,
2013-11-19 07:33:00,36.3,32.8,29.97,NNW,333,0.0,0.0,87,0.00,,,0.00,VWS V14.00,2013-11-19 14:33:00,
2013-11-19 07:38:00,36.4,32.9,29.98,NNW,333,0.0,2.0,87,0.00,,,0.00,VWS V14.00,2013-11-19 14:38:00,
2013-11-19 07:40:00,36.3,32.2,29.97,NNW,333,0.0,3.0,85,0.00,,,0.00,VWS V14.00,2013-11-19 14:40:00,
2013-11-19 07:43:00,36.7,33.2,29.98,NNW,333,0.0,0.0,87,0.00,,,0.00,VWS V14.00,2013-11-19 14:43:00,
2013-11-19 07:48:00,37.7,34.5,29.98,NNW,333,0.0,0.0,88,0.00,,,0.00,VWS V14.00,2013-11-19 14:48:00,
2013-11-19 07:50:00,36.2,32.4,29.97,NNW,333,0.0,1.0,86,0.00,,,0.00,VWS V14.00,2013-11-19 14:50:00,
2013-11-19 07:53:00,38.6,35.6,29.98,NNW,333,0.0,1.0,89,0.00,,,0.00,VWS V14.00,2013-11-19 14:53:00,
2013-11-19 07:58:00,39.2,36.0,29.98,NNW,333,0.0,1.0,88,0.00,,,0.00,VWS V14.00,2013-11-19 14:58:00,
2013-11-19 08:00:00,36.1,32.3,29.98,NNW,333,0.0,1.0,86,0.00,,,0.00,VWS V14.00,2013-11-19 15:00:00,
2013-11-19 08:03:00,40.1,36.8,29.98,NNW,333,0.0,0.0,88,0.00,,,0.00,VWS V14.00,2013-11-19 15:03:00,
2013-11-19 08:08:00,40.8,37.2,29.99,NNW,333,0.0,1.0,87,0.00,,,0.00,VWS V14.00,2013-11-19 15:08:00,
2013-11-19 08:10:00,36.2,32.4,29.98,NNW,333,0.0,0.0,86,0.00,,,0.00,VWS V14.00,2013-11-19 15:10:00,
2013-11-19 08:13:00,40.8,36.9,29.98,NNW,333,0.0,0.0,86,0.00,,,0.00,VWS V14.00,2013-11-19 15:13:00,
2013-11-19 08:18:00,41.1,37.2,29.98,NNW,333,0.0,0.0,86,0.00,,,0.00,VWS V14.00,2013-11-19 15:18:00,
2013-11-19 08:20:00,36.2,32.4,29.97,NNW,333,0.0,0.0,86,0.00,,,0.00,VWS V14.00,2013-11-19 15:20:00,
2013-11-19 08:23:00,41.5,37.3,29.98,NNW,333,0.0,0.0,85,0.00,,,0.00,VWS V14.00,2013-11-19 15:23:00,
2013-11-19 08:28:00,42.0,37.8,29.98,NNW,333,0.0,0.0,85,0.00,,,0.00,VWS V14.00,2013-11-19 15:28:00,
2013-11-19 08:30:00,36.3,32.8,29.98,NNW,333,0.0,0.0,87,0.00,,,0.00,VWS V14.00,2013-11-19 15:30:00,
2013-11-19 08:33:00,42.1,37.6,29.98,NNW,333,0.0,1.0,84,0.00,,,0.00,VWS V14.00,2013-11-19 15:33:00,
2013-11-19 08:38:00,42.2,37.4,29.98,NNW,333,0.0,0.0,83,0.00,,,0.00,VWS V14.00,2013-11-19 15:38:00,
2013-11-19 08:40:00,36.5,33.0,29.98,NNW,333,0.0,1.0,87,0.00,,,0.00,VWS V14.00,2013-11-19 15:40:00,
2013-11-19 08:43:00,42.6,37.8,29.98,NNW,333,0.0,0.0,83,0.00,,,0.00,VWS V14.00,2013-11-19 15:43:00,
2013-11-19 08:48:00,42.7,37.6,29.97,NNW,333,0.0,0.0,82,0.00,,,0.00,VWS V14.00,2013-11-19 15:48:00,
2013-11-19 08:50:00,38.3,35.3,29.98,NNW,333,0.0,1.0,89,0.00,,,0.00,VWS V14.00,2013-11-19 15:50:00,
2013-11-19 08:53:00,43.0,37.6,29.98,NNW,333,0.0,0.0,81,0.00,,,0.00,VWS V14.00,2013-11-19 15:53:00,
2013-11-19 08:58:00,43.3,37.9,29.98,NNW,333,0.0,0.0,81,0.00,,,0.00,VWS V14.00,2013-11-19 15:58:00,
2013-11-19 09:00:00,39.6,36.3,29.98,NNW,333,0.0,0.0,88,0.00,,,0.00,VWS V14.00,2013-11-19 16:00:00,
2013-11-19 09:03:00,43.6,37.8,29.98,NNW,333,0.0,0.0,80,0.00,,,0.00,VWS V14.00,2013-11-19 16:03:00,
2013-11-19 09:08:00,43.8,38.0,29.98,NNW,333,0.0,0.0,80,0.00,,,0.00,VWS V14.00,2013-11-19 16:08:00,
2013-11-19 09:10:00,40.8,36.9,29.98,NNW,333,0.0,1.0,86,0.00,,,0.00,VWS V14.00,2013-11-19 16:10:00,
2013-11-19 09:13:00,44.0,37.9,29.98,NNW,333,0.0,0.0,79,0.00,,,0.00,VWS V14.00,2013-11-19 16:13:00,
2013-11-19 09:18:00,44.2,38.1,29.98,NNW,333,0.0,0.0,79,0.00,,,0.00,VWS V14.00,2013-11-19 16:18:00,
2013-11-19 09:20:00,41.3,37.1,29.98,NNW,333,0.0,0.0,85,0.00,,,0.00,VWS V14.00,2013-11-19 16:20:00,
2013-11-19 09:23:00,44.4,38.0,29.98,NNW,333,0.0,0.0,78,0.00,,,0.00,VWS V14.00,2013-11-19 16:23:00,
2013-11-19 09:28:00,45.1,38.0,29.98,NNW,333,0.0,0.0,76,0.00,,,0.00,VWS V14.00,2013-11-19 16:28:00,
2013-11-19 09:30:00,42.1,37.9,29.98,NNW,333,0.0,0.0,85,0.00,,,0.00,VWS V14.00,2013-11-19 16:30:00,
2013-11-19 09:33:00,45.8,38.7,29.98,NNW,333,0.0,1.0,76,0.00,,,0.00,VWS V14.00,2013-11-19 16:33:00,
2013-11-19 09:38:00,47.2,40.0,29.98,NNW,333,1.0,1.0,76,0.00,,,0.00,VWS V14.00,2013-11-19 16:38:00,
2013-11-19 09:40:00,42.4,37.6,29.98,NNW,333,0.0,0.0,83,0.00,,,0.00,VWS V14.00,2013-11-19 16:40:00,
2013-11-19 09:43:00,48.0,39.8,29.98,NNW,333,0.0,1.0,73,0.00,,,0.00,VWS V14.00,2013-11-19 16:43:00,
2013-11-19 09:48:00,48.2,40.0,29.97,NNW,333,1.0,3.0,73,0.00,,,0.00,VWS V14.00,2013-11-19 16:48:00,
2013-11-19 09:50:00,42.9,37.8,29.98,NNW,333,0.0,0.0,82,0.00,,,0.00,VWS V14.00,2013-11-19 16:50:00,
2013-11-19 09:53:00,48.5,39.5,29.97,NNW,333,0.0,2.0,71,0.00,,,0.00,VWS V14.00,2013-11-19 16:53:00,
2013-11-19 09:58:00,49.4,40.4,29.98,SSW,206,2.0,2.0,71,0.00,,,0.00,VWS V14.00,2013-11-19 16:58:00,
2013-11-19 10:00:00,43.4,37.7,29.98,NNW,333,0.0,0.0,80,0.00,,,0.00,VWS V14.00,2013-11-19 17:00:00,
2013-11-19 10:03:00,50.1,40.3,29.97,SSW,206,0.0,1.0,69,0.00,,,0.00,VWS V14.00,2013-11-19 17:03:00,
2013-11-19 10:08:00,50.6,39.3,29.97,SSW,206,0.0,1.0,65,0.00,,,0.00,VWS V14.00,2013-11-19 17:08:00,
2013-11-19 10:10:00,43.9,38.1,29.98,NNW,333,0.0,0.0,80,0.00,,,0.00,VWS V14.00,2013-11-19 17:10:00,
2013-11-19 10:13:00,51.4,40.8,29.97,SSW,206,0.0,1.0,67,0.00,,,0.00,VWS V14.00,2013-11-19 17:13:00,
2013-11-19 10:18:00,52.3,40.5,29.97,SSW,206,0.0,2.0,64,0.00,,,0.00,VWS V14.00,2013-11-19 17:18:00,
2013-11-19 10:20:00,44.2,37.8,29.98,NNW,333,0.0,0.0,78,0.00,,,0.00,VWS V14.00,2013-11-19 17:20:00,
2013-11-19 10:23:00,52.8,41.8,29.96,SSW,206,0.0,3.0,66,0.00,,,0.00,VWS V14.00,2013-11-19 17:23:00,
2013-11-19 10:28:00,53.1,40.0,29.96,SSW,206,0.0,2.0,61,0.00,,,0.00,VWS V14.00,2013-11-19 17:28:00,
2013-11-19 10:30:00,45.4,38.0,29.97,NNW,333,0.0,0.0,75,0.00,,,0.00,VWS V14.00,2013-11-19 17:30:00,
2013-11-19 10:33:00,53.6,39.6,29.97,WSW,245,1.0,3.0,59,0.00,,,0.00,VWS V14.00,2013-11-19 17:33:00,
2013-11-19 10:35:00,53.7,39.7,29.96,WSW,245,0.0,3.0,59,0.00,,,0.00,VWS V14.00,2013-11-19 17:35:00,
2013-11-19 10:40:00,54.1,40.5,29.96,South,190,0.0,3.0,60,0.00,,,0.00,VWS V14.00,2013-11-19 17:40:00,
2013-11-19 10:45:00,54.5,40.9,29.96,South,190,0.0,2.0,60,0.00,,,0.00,VWS V14.00,2013-11-19 17:45:00,
2013-11-19 10:50:00,54.5,40.5,29.96,South,190,0.0,1.0,59,0.00,,,0.00,VWS V14.00,2013-11-19 17:50:00,
2013-11-19 10:55:00,55.4,41.3,29.95,SSW,207,2.0,2.0,59,0.00,,,0.00,VWS V14.00,2013-11-19 17:55:00,
2013-11-19 11:00:00,56.0,40.5,29.95,SSW,207,0.0,2.0,56,0.00,,,0.00,VWS V14.00,2013-11-19 18:00:00,
2013-11-19 11:05:00,57.0,41.5,29.95,South,169,2.0,3.0,56,0.00,,,0.00,VWS V14.00,2013-11-19 18:05:00,
2013-11-19 11:10:00,57.0,41.0,29.95,South,188,1.0,4.0,55,0.00,,,0.00,VWS V14.00,2013-11-19 18:10:00,
2013-11-19 11:15:00,57.4,41.8,29.94,South,187,2.0,3.0,56,0.00,,,0.00,VWS V14.00,2013-11-19 18:15:00,
2013-11-19 11:20:00,57.8,42.2,29.95,SSW,202,2.0,4.0,56,0.00,,,0.00,VWS V14.00,2013-11-19 18:20:00,
2013-11-19 11:25:00,57.7,40.2,29.94,South,172,0.0,3.0,52,0.00,,,0.00,VWS V14.00,2013-11-19 18:25:00,
2013-11-19 11:30:00,58.0,41.0,29.94,South,172,0.0,1.0,53,0.00,,,0.00,VWS V14.00,2013-11-19 18:30:00,
2013-11-19 11:35:00,58.6,41.0,29.93,SE,130,0.0,1.0,52,0.00,,,0.00,VWS V14.00,2013-11-19 18:35:00,
2013-11-19 11:40:00,58.9,40.3,29.93,ESE,115,0.0,1.0,50,0.00,,,0.00,VWS V14.00,2013-11-19 18:40:00,
2013-11-19 11:45:00,59.0,40.4,29.93,East,97,2.0,2.0,50,0.00,,,0.00,VWS V14.00,2013-11-19 18:45:00,
2013-11-19 11:50:00,58.7,40.1,29.93,East,97,0.0,1.0,50,0.00,,,0.00,VWS V14.00,2013-11-19 18:50:00,
2013-11-19 11:55:00,59.0,40.4,29.92,East,96,0.0,1.0,50,0.00,,,0.00,VWS V14.00,2013-11-19 18:55:00,
2013-11-19 12:00:00,59.9,40.7,29.92,East,99,0.0,2.0,49,0.00,,,0.00,VWS V14.00,2013-11-19 19:00:00,
2013-11-19 12:05:00,60.3,40.5,29.92,ENE,71,2.0,3.0,48,0.00,,,0.00,VWS V14.00,2013-11-19 19:05:00,
2013-11-19 12:10:00,60.1,40.9,29.91,ENE,72,0.0,1.0,49,0.00,,,0.00,VWS V14.00,2013-11-19 19:10:00,
2013-11-19 12:15:00,60.6,41.4,29.91,ENE,71,0.0,1.0,49,0.00,,,0.00,VWS V14.00,2013-11-19 19:15:00,
2013-11-19 12:20:00,61.3,40.9,29.91,East,79,1.0,2.0,47,0.00,,,0.00,VWS V14.00,2013-11-19 19:20:00,
2013-11-19 12:25:00,61.8,41.9,29.90,East,92,0.0,2.0,48,0.00,,,0.00,VWS V14.00,2013-11-19 19:25:00,
2013-11-19 12:30:00,61.7,41.3,29.90,SE,124,0.0,1.0,47,0.00,,,0.00,VWS V14.00,2013-11-19 19:30:00,
2013-11-19 12:35:00,62.0,42.1,29.89,South,190,0.0,4.0,48,0.00,,,0.00,VWS V14.00,2013-11-19 19:35:00,
2013-11-19 12:40:00,62.0,41.6,29.88,South,190,0.0,1.0,47,0.00,,,0.00,VWS V14.00,2013-11-19 19:40:00,
2013-11-19 12:45:00,62.7,41.6,29.88,ENE,76,0.0,2.0,46,0.00,,,0.00,VWS V14.00,2013-11-19 19:45:00,
2013-11-19 12:50:00,63.0,41.3,29.88,East,82,0.0,1.0,45,0.00,,,0.00,VWS V14.00,2013-11-19 19:50:00,
2013-11-19 12:55:00,62.6,41.5,29.87,East,90,0.0,1.0,46,0.00,,,0.00,VWS V14.00,2013-11-19 19:55:00,
2013-11-19 13:00:00,62.5,40.9,29.87,East,82,0.0,1.0,45,0.00,,,0.00,VWS V14.00,2013-11-19 20:00:00,
2013-11-19 13:05:00,63.2,42.1,29.86,NNW,329,0.0,1.0,46,0.00,,,0.00,VWS V14.00,2013-11-19 20:05:00,
2013-11-19 13:10:00,63.6,41.3,29.86,North,11,1.0,3.0,44,0.00,,,0.00,VWS V14.00,2013-11-19 20:10:00,
2013-11-19 13:15:00,64.4,42.0,29.85,ENE,58,0.0,2.0,44,0.00,,,0.00,VWS V14.00,2013-11-19 20:15:00,
2013-11-19 13:20:00,65.6,43.7,29.85,SE,128,4.0,4.0,45,0.00,,,0.00,VWS V14.00,2013-11-19 20:20:00,
2013-11-19 13:25:00,66.9,44.3,29.84,ESE,113,3.0,7.0,44,0.00,,,0.00,VWS V14.00,2013-11-19 20:25:00,
2013-11-19 13:30:00,67.2,43.4,29.84,SE,137,3.0,8.0,42,0.00,,,0.00,VWS V14.00,2013-11-19 20:30:00,
2013-11-19 13:35:00,67.3,43.5,29.83,SE,133,7.0,14.0,42,0.00,,,0.00,VWS V14.00,2013-11-19 20:35:00,
2013-11-19 13:40:00,67.1,43.3,29.83,SSE,159,6.0,7.0,42,0.00,,,0.00,VWS V14.00,2013-11-19 20:40:00,
2013-11-19 13:45:00,67.5,43.6,29.82,SSW,192,5.0,7.0,42,0.00,,,0.00,VWS V14.00,2013-11-19 20:45:00,
2013-11-19 13:50:00,67.9,43.4,29.83,ESE,122,1.0,5.0,41,0.00,,,0.00,VWS V14.00,2013-11-19 20:50:00,
2013-11-19 13:55:00,68.0,44.7,29.82,SE,144,3.0,7.0,43,0.00,,,0.00,VWS V14.00,2013-11-19 20:55:00,
2013-11-19 13:59:00,68.9,44.2,29.82,South,185,5.0,9.0,41,0.00,,,0.00,VWS V14.00,2013-11-19 20:59:00,
2013-11-19 14:00:00,62.5,41.5,29.87,East,82,0.0,1.0,46,0.00,,,0.00,VWS V14.00,2013-11-19 21:00:00,
2013-11-19 14:04:00,69.2,44.5,29.82,South,183,5.0,10.0,41,0.00,,,0.00,VWS V14.00,2013-11-19 21:04:00,
2013-11-19 14:09:00,68.7,44.1,29.82,SE,126,11.0,11.0,41,0.00,,,0.00,VWS V14.00,2013-11-19 21:09:00,
2013-11-19 14:10:00,63.7,42.0,29.86,North,11,0.0,1.0,45,0.00,,,0.00,VWS V14.00,2013-11-19 21:10:00,
2013-11-19 14:14:00,68.8,44.2,29.81,SSW,192,5.0,7.0,41,0.00,,,0.00,VWS V14.00,2013-11-19 21:14:00,
2013-11-19 14:19:00,68.8,42.9,29.81,South,188,2.0,16.0,39,0.00,,,0.00,VWS V14.00,2013-11-19 21:19:00,
2013-11-19 14:20:00,65.8,43.3,29.85,SSE,149,5.0,6.0,44,0.00,,,0.00,VWS V14.00,2013-11-19 21:20:00,
2013-11-19 14:24:00,68.5,43.2,29.81,SSE,164,10.0,10.0,40,0.00,,,0.00,VWS V14.00,2013-11-19 21:24:00,
2013-11-19 14:29:00,68.7,42.8,29.81,SSE,165,2.0,9.0,39,0.00,,,0.00,VWS V14.00,2013-11-19 21:29:00,
2013-11-19 14:30:00,67.1,43.9,29.84,SSW,196,2.0,6.0,43,0.00,,,0.00,VWS V14.00,2013-11-19 21:30:00,
2013-11-19 14:34:00,68.6,44.0,29.81,South,171,11.0,13.0,41,0.00,,,0.00,VWS V14.00,2013-11-19 21:34:00,
2013-11-19 14:39:00,68.9,43.6,29.81,South,171,13.0,14.0,40,0.00,,,0.00,VWS V14.00,2013-11-19 21:39:00,
2013-11-19 14:40:00,67.1,43.3,29.83,SE,130,7.0,7.0,42,0.00,,,0.00,VWS V14.00,2013-11-19 21:40:00,
2013-11-19 14:44:00,69.2,43.2,29.81,South,185,9.0,16.0,39,0.00,,,0.00,VWS V14.00,2013-11-19 21:44:00,
2013-11-19 14:49:00,69.3,43.3,29.81,South,189,13.0,15.0,39,0.00,,,0.00,VWS V14.00,2013-11-19 21:49:00,
2013-11-19 14:50:00,67.9,44.0,29.83,ESE,123,2.0,5.0,42,0.00,,,0.00,VWS V14.00,2013-11-19 21:50:00,
2013-11-19 14:54:00,69.2,43.9,29.81,South,183,5.0,15.0,40,0.00,,,0.00,VWS V14.00,2013-11-19 21:54:00,
2013-11-19 14:59:00,69.2,43.2,29.81,SSW,198,7.0,11.0,39,0.00,,,0.00,VWS V14.00,2013-11-19 21:59:00,
2013-11-19 15:00:00,69.1,44.4,29.82,SSE,148,5.0,7.0,41,0.00,,,0.00,VWS V14.00,2013-11-19 22:00:00,
2013-11-19 15:04:00,68.9,43.0,29.81,South,175,12.0,14.0,39,0.00,,,0.00,VWS V14.00,2013-11-19 22:04:00,
2013-11-19 15:09:00,68.3,43.1,29.81,South,182,16.0,18.0,40,0.00,,,0.00,VWS V14.00,2013-11-19 22:09:00,
2013-11-19 15:10:00,68.7,43.4,29.82,ESE,105,7.0,11.0,40,0.00,,,0.00,VWS V14.00,2013-11-19 22:10:00,
2013-11-19 15:14:00,68.3,43.1,29.81,South,190,10.0,12.0,40,0.00,,,0.00,VWS V14.00,2013-11-19 22:14:00,
2013-11-19 15:19:00,68.5,43.2,29.81,SSW,207,5.0,14.0,40,0.00,,,0.00,VWS V14.00,2013-11-19 22:19:00,
2013-11-19 15:20:00,68.7,42.8,29.81,ESE,122,9.0,16.0,39,0.00,,,0.00,VWS V14.00,2013-11-19 22:20:00,
2013-11-19 15:24:00,68.5,43.2,29.80,South,180,15.0,15.0,40,0.00,,,0.00,VWS V14.00,2013-11-19 22:24:00,
2013-11-19 15:29:00,68.3,42.4,29.80,SSW,192,13.0,20.0,39,0.00,,,0.00,VWS V14.00,2013-11-19 22:29:00,
2013-11-19 15:30:00,68.7,42.8,29.81,SSE,167,5.0,9.0,39,0.00,,,0.00,VWS V14.00,2013-11-19 22:30:00,
2013-11-19 15:34:00,68.1,42.9,29.80,South,180,7.0,14.0,40,0.00,,,0.00,VWS V14.00,2013-11-19 22:34:00,
2013-11-19 15:39:00,67.9,42.7,29.80,SSW,205,4.0,12.0,40,0.00,,,0.00,VWS V14.00,2013-11-19 22:39:00,
2013-11-19 15:40:00,69.0,43.7,29.81,South,188,7.0,14.0,40,0.00,,,0.00,VWS V14.00,2013-11-19 22:40:00,
2013-11-19 15:44:00,67.7,42.5,29.80,South,181,12.0,13.0,40,0.00,,,0.00,VWS V14.00,2013-11-19 22:44:00,
2013-11-19 15:49:00,67.4,42.3,29.80,SSW,198,15.0,18.0,40,0.00,,,0.00,VWS V14.00,2013-11-19 22:49:00,
2013-11-19 15:50:00,69.3,43.3,29.81,SSW,199,9.0,15.0,39,0.00,,,0.00,VWS V14.00,2013-11-19 22:50:00,
2013-11-19 15:54:00,67.1,42.6,29.80,South,191,16.0,16.0,41,0.00,,,0.00,VWS V14.00,2013-11-19 22:54:00,
2013-11-19 15:59:00,66.8,42.4,29.80,SSW,212,5.0,12.0,41,0.00,,,0.00,VWS V14.00,2013-11-19 22:59:00,
2013-11-19 16:00:00,69.2,43.2,29.81,South,184,6.0,12.0,39,0.00,,,0.00,VWS V14.00,2013-11-19 23:00:00,
2013-11-19 16:04:00,66.7,42.9,29.80,SSW,198,10.0,14.0,42,0.00,,,0.00,VWS V14.00,2013-11-19 23:04:00,
2013-11-19 16:09:00,66.6,42.8,29.80,SSW,211,5.0,12.0,42,0.00,,,0.00,VWS V14.00,2013-11-19 23:09:00,
2013-11-19 16:10:00,68.2,43.6,29.81,South,179,10.0,18.0,41,0.00,,,0.00,VWS V14.00,2013-11-19 23:10:00,
2013-11-19 16:14:00,66.5,42.7,29.79,SSW,192,9.0,16.0,42,0.00,,,0.00,VWS V14.00,2013-11-19 23:14:00,
2013-11-19 16:19:00,66.1,42.4,29.80,SSW,197,7.0,14.0,42,0.00,,,0.00,VWS V14.00,2013-11-19 23:19:00,
2013-11-19 16:20:00,68.6,42.7,29.80,SSE,167,12.0,15.0,39,0.00,,,0.00,VWS V14.00,2013-11-19 23:20:00,
2013-11-19 16:24:00,65.9,42.8,29.80,SSW,200,11.0,14.0,43,0.00,,,0.00,VWS V14.00,2013-11-19 23:24:00,
2013-11-19 16:29:00,65.5,42.4,29.80,SSW,202,4.0,17.0,43,0.00,,,0.00,VWS V14.00,2013-11-19 23:29:00,
2013-11-19 16:30:00,68.3,43.1,29.80,South,178,14.0,20.0,40,0.00,,,0.00,VWS V14.00,2013-11-19 23:30:00,
2013-11-19 16:34:00,65.2,42.2,29.80,SSW,213,6.0,10.0,43,0.00,,,0.00,VWS V14.00,2013-11-19 23:34:00,
2013-11-19 16:39:00,64.9,41.9,29.80,SSW,202,5.0,14.0,43,0.00,,,0.00,VWS V14.00,2013-11-19 23:39:00,
2013-11-19 16:40:00,67.9,42.7,29.80,SSW,210,3.0,12.0,40,0.00,,,0.00,VWS V14.00,2013-11-19 23:40:00,
2013-11-19 16:44:00,64.6,42.2,29.80,SW,219,6.0,11.0,44,0.00,,,0.00,VWS V14.00,2013-11-19 23:44:00,
2013-11-19 16:49:00,64.3,41.9,29.80,South,180,13.0,13.0,44,0.00,,,0.00,VWS V14.00,2013-11-19 23:49:00,
2013-11-19 16:50:00,67.3,42.8,29.80,South,176,15.0,18.0,41,0.00,,,0.00,VWS V14.00,2013-11-19 23:50:00,
2013-11-19 16:54:00,64.1,42.3,29.80,SSW,196,6.0,13.0,45,0.00,,,0.00,VWS V14.00,2013-11-19 23:54:00,
2013-11-19 16:59:00,63.8,42.1,29.80,SSW,203,7.0,12.0,45,0.00,,,0.00,VWS V14.00,2013-11-19 23:59:00,
2013-11-19 17:00:00,66.8,42.4,29.80,South,188,7.0,12.0,41,0.00,,,0.00,VWS V14.00,2013-11-20 00:00:00,
2013-11-19 17:04:00,63.6,41.9,29.80,SSW,207,2.0,10.0,45,0.00,,,0.00,VWS V14.00,2013-11-20 00:04:00,
2013-11-19 17:09:00,63.4,42.3,29.80,SSW,213,2.0,6.0,46,0.00,,,0.00,VWS V14.00,2013-11-20 00:09:00,
2013-11-19 17:10:00,66.6,42.2,29.80,South,191,9.0,12.0,41,0.00,,,0.00,VWS V14.00,2013-11-20 00:10:00,
2013-11-19 17:14:00,63.2,42.1,29.81,SW,220,4.0,9.0,46,0.00,,,0.00,VWS V14.00,2013-11-20 00:14:00,
2013-11-19 17:19:00,63.0,41.9,29.81,SW,229,3.0,4.0,46,0.00,,,0.00,VWS V14.00,2013-11-20 00:19:00,
2013-11-19 17:20:00,66.1,42.4,29.80,South,190,8.0,12.0,42,0.00,,,0.00,VWS V14.00,2013-11-20 00:20:00,
2013-11-19 17:24:00,62.7,42.2,29.81,SSW,209,4.0,6.0,47,0.00,,,0.00,VWS V14.00,2013-11-20 00:24:00,
2013-11-19 17:29:00,62.4,42.5,29.81,South,186,0.0,6.0,48,0.00,,,0.00,VWS V14.00,2013-11-20 00:29:00,
2013-11-19 17:30:00,65.4,42.3,29.80,SSW,210,5.0,17.0,43,0.00,,,0.00,VWS V14.00,2013-11-20 00:30:00,
2013-11-19 17:34:00,62.2,42.3,29.81,South,184,2.0,6.0,48,0.00,,,0.00,VWS V14.00,2013-11-20 00:34:00,
2013-11-19 17:39:00,61.9,42.5,29.81,SSW,195,3.0,7.0,49,0.00,,,0.00,VWS V14.00,2013-11-20 00:39:00,
2013-11-19 17:40:00,64.8,42.4,29.80,SSW,205,6.0,14.0,44,0.00,,,0.00,VWS V14.00,2013-11-20 00:40:00,
2013-11-19 17:44:00,61.6,42.3,29.82,South,182,6.0,7.0,49,0.00,,,0.00,VWS V14.00,2013-11-20 00:44:00,
2013-11-19 17:49:00,61.4,42.6,29.82,SSW,192,4.0,7.0,50,0.00,,,0.00,VWS V14.00,2013-11-20 00:49:00,
2013-11-19 17:50:00,64.3,41.9,29.80,South,190,13.0,13.0,44,0.00,,,0.00,VWS V14.00,2013-11-20 00:50:00,
2013-11-19 17:54:00,61.2,42.4,29.82,South,173,3.0,5.0,50,0.00,,,0.00,VWS V14.00,2013-11-20 00:54:00,
2013-11-19 17:59:00,61.1,42.3,29.82,South,172,3.0,4.0,50,0.00,,,0.00,VWS V14.00,2013-11-20 00:59:00,
2013-11-19 18:00:00,63.8,42.1,29.80,SSW,201,4.0,12.0,45,0.00,,,0.00,VWS V14.00,2013-11-20 01:00:00,
2013-11-19 18:04:00,61.0,41.7,29.82,SSE,166,0.0,5.0,49,0.00,,,0.00,VWS V14.00,2013-11-20 01:04:00,
2013-11-19 18:09:00,60.9,42.2,29.83,SSE,155,0.0,4.0,50,0.00,,,0.00,VWS V14.00,2013-11-20 01:09:00,
2013-11-19 18:10:00,63.3,42.2,29.80,SSW,204,4.0,4.0,46,0.00,,,0.00,VWS V14.00,2013-11-20 01:10:00,
2013-11-19 18:14:00,60.8,41.5,29.83,SSE,155,2.0,3.0,49,0.00,,,0.00,VWS V14.00,2013-11-20 01:14:00,
2013-11-19 18:19:00,60.7,42.0,29.83,South,171,2.0,4.0,50,0.00,,,0.00,VWS V14.00,2013-11-20 01:19:00,
2013-11-19 18:20:00,62.9,41.8,29.81,SSW,208,2.0,4.0,46,0.00,,,0.00,VWS V14.00,2013-11-20 01:20:00,
2013-11-19 18:24:00,60.6,41.9,29.83,SSW,199,2.0,6.0,50,0.00,,,0.00,VWS V14.00,2013-11-20 01:24:00,
2013-11-19 18:29:00,60.4,42.2,29.82,South,180,3.0,7.0,51,0.00,,,0.00,VWS V14.00,2013-11-20 01:29:00,
2013-11-19 18:30:00,62.4,42.5,29.81,South,185,4.0,6.0,48,0.00,,,0.00,VWS V14.00,2013-11-20 01:30:00,
2013-11-19 18:34:00,60.2,42.0,29.83,South,178,0.0,3.0,51,0.00,,,0.00,VWS V14.00,2013-11-20 01:34:00,
2013-11-19 18:39:00,60.1,41.4,29.83,South,178,0.0,1.0,50,0.00,,,0.00,VWS V14.00,2013-11-20 01:39:00,
2013-11-19 18:40:00,61.9,42.5,29.82,SSW,196,3.0,7.0,49,0.00,,,0.00,VWS V14.00,2013-11-20 01:40:00,
2013-11-19 18:44:00,59.9,41.2,29.83,South,178,0.0,1.0,50,0.00,,,0.00,VWS V14.00,2013-11-20 01:44:00,
2013-11-19 18:49:00,59.8,41.7,29.83,South,178,0.0,1.0,51,0.00,,,0.00,VWS V14.00,2013-11-20 01:49:00,
2013-11-19 18:50:00,61.3,42.0,29.82,South,180,4.0,7.0,49,0.00,,,0.00,VWS V14.00,2013-11-20 01:50:00,
2013-11-19 18:54:00,59.5,41.4,29.83,South,178,0.0,1.0,51,0.00,,,0.00,VWS V14.00,2013-11-20 01:54:00,
2013-11-19 18:59:00,59.0,41.4,29.83,South,178,0.0,1.0,52,0.00,,,0.00,VWS V14.00,2013-11-20 01:59:00,
2013-11-19 19:00:00,61.0,42.2,29.82,SSE,164,3.0,4.0,50,0.00,,,0.00,VWS V14.00,2013-11-20 02:00:00,
2013-11-19 19:04:00,58.7,41.6,29.83,South,178,0.0,0.0,53,0.00,,,0.00,VWS V14.00,2013-11-20 02:04:00,
2013-11-19 19:09:00,58.2,41.2,29.83,East,80,1.0,2.0,53,0.00,,,0.00,VWS V14.00,2013-11-20 02:09:00,
2013-11-19 19:10:00,60.9,42.2,29.84,SSE,155,0.0,2.0,50,0.00,,,0.00,VWS V14.00,2013-11-20 02:10:00,
2013-11-19 19:14:00,57.7,41.2,29.83,ENE,76,2.0,2.0,54,0.00,,,0.00,VWS V14.00,2013-11-20 02:14:00,
2013-11-19 19:19:00,56.9,40.9,29.83,ENE,75,1.0,2.0,55,0.00,,,0.00,VWS V14.00,2013-11-20 02:19:00,
2013-11-19 19:20:00,60.7,42.0,29.83,South,171,0.0,4.0,50,0.00,,,0.00,VWS V14.00,2013-11-20 02:20:00,
2013-11-19 19:24:00,56.6,41.6,29.83,ESE,105,1.0,2.0,57,0.00,,,0.00,VWS V14.00,2013-11-20 02:24:00,
2013-11-19 19:29:00,56.3,41.3,29.83,ESE,118,2.0,3.0,57,0.00,,,0.00,VWS V14.00,2013-11-20 02:29:00,
2013-11-19 19:30:00,60.4,42.2,29.83,SSW,193,2.0,7.0,51,0.00,,,0.00,VWS V14.00,2013-11-20 02:30:00,
2013-11-19 19:34:00,56.1,41.1,29.82,ESE,123,0.0,2.0,57,0.00,,,0.00,VWS V14.00,2013-11-20 02:34:00,
2013-11-19 19:39:00,56.0,41.5,29.82,ESE,122,2.0,3.0,58,0.00,,,0.00,VWS V14.00,2013-11-20 02:39:00,
2013-11-19 19:40:00,60.1,41.4,29.83,South,178,0.0,0.0,50,0.00,,,0.00,VWS V14.00,2013-11-20 02:40:00,
2013-11-19 19:44:00,56.0,41.5,29.83,SE,128,2.0,3.0,58,0.00,,,0.00,VWS V14.00,2013-11-20 02:44:00,
2013-11-19 19:49:00,56.1,41.5,29.82,SE,128,1.0,2.0,58,0.00,,,0.00,VWS V14.00,2013-11-20 02:49:00,
2013-11-19 19:50:00,59.7,41.6,29.83,South,178,0.0,1.0,51,0.00,,,0.00,VWS V14.00,2013-11-20 02:50:00,
2013-11-19 19:54:00,56.0,41.0,29.82,SE,128,0.0,2.0,57,0.00,,,0.00,VWS V14.00,2013-11-20 02:54:00,
2013-11-19 19:59:00,55.9,41.3,29.83,SE,128,0.0,1.0,58,0.00,,,0.00,VWS V14.00,2013-11-20 02:59:00,
2013-11-19 20:00:00,59.0,41.4,29.83,South,178,0.0,1.0,52,0.00,,,0.00,VWS V14.00,2013-11-20 03:00:00,
2013-11-19 20:04:00,55.6,41.5,29.83,SE,128,1.0,1.0,59,0.00,,,0.00,VWS V14.00,2013-11-20 03:04:00,
2013-11-19 20:09:00,55.4,41.3,29.83,ESE,109,1.0,2.0,59,0.00,,,0.00,VWS V14.00,2013-11-20 03:09:00,
2013-11-19 20:10:00,58.0,41.5,29.83,East,80,0.0,2.0,54,0.00,,,0.00,VWS V14.00,2013-11-20 03:10:00,
2013-11-19 20:14:00,55.1,41.0,29.83,SE,128,1.0,4.0,59,0.00,,,0.00,VWS V14.00,2013-11-20 03:14:00,
2013-11-19 20:19:00,55.0,41.4,29.83,SE,126,2.0,4.0,60,0.00,,,0.00,VWS V14.00,2013-11-20 03:19:00,
2013-11-19 20:20:00,56.8,40.8,29.83,ENE,75,0.0,2.0,55,0.00,,,0.00,VWS V14.00,2013-11-20 03:20:00,
2013-11-19 20:24:00,54.9,41.3,29.83,ESE,119,2.0,3.0,60,0.00,,,0.00,VWS V14.00,2013-11-20 03:24:00,
2013-11-19 20:29:00,54.8,41.2,29.83,ESE,114,0.0,3.0,60,0.00,,,0.00,VWS V14.00,2013-11-20 03:29:00,
2013-11-19 20:30:00,56.3,41.3,29.83,ESE,123,0.0,3.0,57,0.00,,,0.00,VWS V14.00,2013-11-20 03:30:00,
2013-11-19 20:34:00,54.7,41.1,29.84,NW,311,0.0,2.0,60,0.00,,,0.00,VWS V14.00,2013-11-20 03:34:00,
2013-11-19 20:39:00,54.6,41.0,29.83,SSW,206,0.0,1.0,60,0.00,,,0.00,VWS V14.00,2013-11-20 03:39:00,
2013-11-19 20:40:00,56.0,41.5,29.82,ESE,122,2.0,3.0,58,0.00,,,0.00,VWS V14.00,2013-11-20 03:40:00,
2013-11-19 20:44:00,54.4,40.8,29.84,SW,216,0.0,0.0,60,0.00,,,0.00,VWS V14.00,2013-11-20 03:44:00,
2013-11-19 20:49:00,54.2,41.1,29.84,NNW,332,0.0,2.0,61,0.00,,,0.00,VWS V14.00,2013-11-20 03:49:00,
2013-11-19 20:50:00,56.1,41.1,29.82,SE,128,1.0,2.0,57,0.00,,,0.00,VWS V14.00,2013-11-20 03:50:00,
2013-11-19 20:54:00,54.0,40.9,29.84,NNW,331,0.0,0.0,61,0.00,,,0.00,VWS V14.00,2013-11-20 03:54:00,
2013-11-19 20:59:00,53.7,40.6,29.84,NNW,338,0.0,2.0,61,0.00,,,0.00,VWS V14.00,2013-11-20 03:59:00,
2013-11-19 21:00:00,55.8,41.7,29.83,SE,128,0.0,1.0,59,0.00,,,0.00,VWS V14.00,2013-11-20 04:00:00,
2013-11-19 21:04:00,53.2,40.5,29.84,NNE,23,2.0,3.0,62,0.00,,,0.00,VWS V14.00,2013-11-20 04:04:00,
2013-11-19 21:09:00,52.6,40.4,29.85,NNE,23,1.0,2.0,63,0.00,,,0.00,VWS V14.00,2013-11-20 04:09:00,
2013-11-19 21:10:00,55.3,41.2,29.83,ESE,111,1.0,2.0,59,0.00,,,0.00,VWS V14.00,2013-11-20 04:10:00,
2013-11-19 21:14:00,51.7,39.9,29.85,NNE,23,0.0,2.0,64,0.00,,,0.00,VWS V14.00,2013-11-20 04:14:00,
2013-11-19 21:19:00,50.9,40.0,29.85,NE,52,4.0,4.0,66,0.00,,,0.00,VWS V14.00,2013-11-20 04:19:00,
2013-11-19 21:20:00,54.9,41.3,29.83,ESE,118,1.0,5.0,60,0.00,,,0.00,VWS V14.00,2013-11-20 04:20:00,
2013-11-19 21:24:00,50.1,39.6,29.84,NE,52,2.0,4.0,67,0.00,,,0.00,VWS V14.00,2013-11-20 04:24:00,
2013-11-19 21:29:00,49.7,39.6,29.84,NE,52,1.0,3.0,68,0.00,,,0.00,VWS V14.00,2013-11-20 04:29:00,
2013-11-19 21:30:00,54.8,41.2,29.83,ESE,118,0.0,3.0,60,0.00,,,0.00,VWS V14.00,2013-11-20 04:30:00,
2013-11-19 21:34:00,49.6,39.9,29.85,NE,38,0.0,0.0,69,0.00,,,0.00,VWS V14.00,2013-11-20 04:34:00,
2013-11-19 21:39:00,49.5,39.8,29.85,NE,38,0.0,1.0,69,0.00,,,0.00,VWS V14.00,2013-11-20 04:39:00,
2013-11-19 21:40:00,54.5,40.9,29.83,SSW,206,0.0,1.0,60,0.00,,,0.00,VWS V14.00,2013-11-20 04:40:00,
2013-11-19 21:44:00,49.5,39.8,29.85,NE,38,0.0,0.0,69,0.00,,,0.00,VWS V14.00,2013-11-20 04:44:00,
2013-11-19 21:49:00,49.4,40.0,29.85,NE,38,0.0,0.0,70,0.00,,,0.00,VWS V14.00,2013-11-20 04:49:00,
2013-11-19 21:50:00,54.1,41.0,29.84,NNW,331,0.0,0.0,61,0.00,,,0.00,VWS V14.00,2013-11-20 04:50:00,
2013-11-19 21:54:00,49.2,39.8,29.85,NE,38,0.0,2.0,70,0.00,,,0.00,VWS V14.00,2013-11-20 04:54:00,
2013-11-19 21:59:00,49.0,39.7,29.85,NE,38,1.0,2.0,70,0.00,,,0.00,VWS V14.00,2013-11-20 04:59:00,
2013-11-19 22:00:00,53.5,40.8,29.85,NNW,338,0.0,2.0,62,0.00,,,0.00,VWS V14.00,2013-11-20 05:00:00,
2013-11-19 22:01:00,49.0,40.0,29.85,NE,38,0.0,2.0,71,0.00,,,0.00,VWS V14.00,2013-11-20 05:01:00,
2013-11-19 22:02:00,49.0,40.0,29.85,NE,38,0.0,2.0,71,0.00,,,0.00,VWS V14.00,2013-11-20 05:02:00,
2013-11-19 22:07:00,48.9,39.9,29.85,NE,38,1.0,3.0,71,0.00,,,0.00,VWS V14.00,2013-11-20 05:07:00,
2013-11-19 22:10:00,52.3,40.1,29.85,NNE,22,2.0,2.0,63,0.00,,,0.00,VWS V14.00,2013-11-20 05:10:00,
2013-11-19 22:12:00,49.0,40.0,29.85,NE,39,0.0,1.0,71,0.00,,,0.00,VWS V14.00,2013-11-20 05:12:00,
2013-11-19 22:17:00,49.2,40.2,29.85,NE,38,0.0,3.0,71,0.00,,,0.00,VWS V14.00,2013-11-20 05:17:00,
2013-11-19 22:20:00,50.6,39.7,29.85,NE,53,4.0,4.0,66,0.00,,,0.00,VWS V14.00,2013-11-20 05:20:00,
2013-11-19 22:22:00,49.1,40.1,29.85,NE,38,0.0,0.0,71,0.00,,,0.00,VWS V14.00,2013-11-20 05:22:00,
2013-11-19 22:27:00,49.0,40.0,29.85,NE,38,0.0,0.0,71,0.00,,,0.00,VWS V14.00,2013-11-20 05:27:00,
2013-11-19 22:30:00,49.6,39.9,29.85,NE,38,0.0,3.0,69,0.00,,,0.00,VWS V14.00,2013-11-20 05:30:00,
2013-11-19 22:32:00,48.8,39.8,29.85,NE,38,0.0,0.0,71,0.00,,,0.00,VWS V14.00,2013-11-20 05:32:00,
2013-11-19 22:37:00,48.7,39.7,29.85,NE,38,0.0,0.0,71,0.00,,,0.00,VWS V14.00,2013-11-20 05:37:00,
2013-11-19 22:40:00,49.5,39.8,29.85,NE,38,0.0,0.0,69,0.00,,,0.00,VWS V14.00,2013-11-20 05:40:00,
2013-11-19 22:42:00,48.6,39.6,29.84,NE,38,0.0,0.0,71,0.00,,,0.00,VWS V14.00,2013-11-20 05:42:00,
2013-11-19 22:47:00,48.4,39.4,29.85,NE,38,0.0,0.0,71,0.00,,,0.00,VWS V14.00,2013-11-20 05:47:00,
2013-11-19 22:50:00,49.4,40.0,29.85,NE,38,0.0,0.0,70,0.00,,,0.00,VWS V14.00,2013-11-20 05:50:00,
2013-11-19 22:52:00,48.2,39.6,29.85,NE,38,0.0,1.0,72,0.00,,,0.00,VWS V14.00,2013-11-20 05:52:00,
2013-11-19 22:57:00,48.1,39.5,29.85,NNE,31,0.0,3.0,72,0.00,,,0.00,VWS V14.00,2013-11-20 05:57:00,
2013-11-19 23:00:00,49.0,40.0,29.85,NE,38,0.0,2.0,71,0.00,,,0.00,VWS V14.00,2013-11-20 06:00:00,
2013-11-19 23:02:00,48.2,39.6,29.84,NNE,31,3.0,3.0,72,0.00,,,0.00,VWS V14.00,2013-11-20 06:02:00,
2013-11-19 23:07:00,48.1,39.5,29.85,NNE,30,3.0,4.0,72,0.00,,,0.00,VWS V14.00,2013-11-20 06:07:00,
2013-11-19 23:10:00,49.0,40.4,29.86,NE,39,0.0,1.0,72,0.00,,,0.00,VWS V14.00,2013-11-20 06:10:00,
2013-11-19 23:12:00,47.8,39.6,29.85,NNE,24,1.0,3.0,73,0.00,,,0.00,VWS V14.00,2013-11-20 06:12:00,
2013-11-19 23:17:00,47.7,39.5,29.85,NNE,24,2.0,3.0,73,0.00,,,0.00,VWS V14.00,2013-11-20 06:17:00,
2013-11-19 23:20:00,49.2,40.2,29.85,NE,38,0.0,0.0,71,0.00,,,0.00,VWS V14.00,2013-11-20 06:20:00,
2013-11-19 23:22:00,47.6,39.7,29.85,NNE,24,2.0,3.0,74,0.00,,,0.00,VWS V14.00,2013-11-20 06:22:00,
2013-11-19 23:27:00,47.7,39.8,29.85,NNE,24,2.0,2.0,74,0.00,,,0.00,VWS V14.00,2013-11-20 06:27:00,
2013-11-19 23:30:00,48.9,39.9,29.85,NE,38,0.0,1.0,71,0.00,,,0.00,VWS V14.00,2013-11-20 06:30:00,
2013-11-19 23:32:00,47.9,39.7,29.84,NNE,24,3.0,3.0,73,0.00,,,0.00,VWS V14.00,2013-11-20 06:32:00,
2013-11-19 23:37:00,47.4,39.2,29.84,NE,47,3.0,4.0,73,0.00,,,0.00,VWS V14.00,2013-11-20 06:37:00,
2013-11-19 23:40:00,48.7,39.7,29.85,NE,38,0.0,0.0,71,0.00,,,0.00,VWS V14.00,2013-11-20 06:40:00,
2013-11-19 23:42:00,47.0,39.2,29.84,NE,46,1.0,4.0,74,0.00,,,0.00,VWS V14.00,2013-11-20 06:42:00,
2013-11-19 23:47:00,46.9,39.1,29.84,NE,46,0.0,1.0,74,0.00,,,0.00,VWS V14.00,2013-11-20 06:47:00,
2013-11-19 23:50:00,48.3,39.3,29.85,NE,38,0.0,1.0,71,0.00,,,0.00,VWS V14.00,2013-11-20 06:50:00,
2013-11-19 23:52:00,46.9,39.4,29.84,NE,46,0.0,3.0,75,0.00,,,0.00,VWS V14.00,2013-11-20 06:52:00,
2013-11-19 23:57:00,46.9,39.4,29.85,NE,45,0.0,0.0,75,0.00,,,0.00,VWS V14.00,2013-11-20 06:57:00,